TimeEDT,TemperatureF,Dew PointF,Humidity,Sea Level PressureIn,VisibilityMPH,Wind Direction,Wind SpeedMPH,Gust SpeedMPH,PrecipitationIn,Events,Conditions,WindDirDegrees,DateUTC
5:45 AM,71.6,66.2,83,29.83,10.0,WNW,3.5,-,N/A,,Clear,300,2013-06-26 09:45:00
6:45 AM,71.6,66.2,83,29.85,10.0,NW,3.5,-,N/A,,Clear,320,2013-06-26 10:45:00
7:45 AM,73.4,66.2,78,29.86,10.0,West,4.6,-,N/A,,Clear,280,2013-06-26 11:45:00
8:45 AM,73.4,68.0,83,29.87,10.0,West,6.9,-,N/A,,Partly Cloudy,280,2013-06-26 12:45:00
9:45 AM,75.2,68.0,78,29.86,10.0,West,4.6,-,N/A,,Partly Cloudy,280,2013-06-26 13:45:00
10:45 AM,75.2,66.2,73,29.86,10.0,NW,6.9,-,N/A,,Partly Cloudy,310,2013-06-26 14:45:00
11:45 AM,77.0,66.2,69,29.87,10.0,West,3.5,-,N/A,,Partly Cloudy,270,2013-06-26 15:45:00
12:45 PM,77.0,66.2,69,29.88,10.0,WSW,8.1,-,N/A,,Scattered Clouds,240,2013-06-26 16:45:00
1:55 PM,75.2,66.2,73,29.89,10.0,West,5.8,-,N/A,,Mostly Cloudy,260,2013-06-26 17:55:00
2:45 PM,75.2,68.0,78,29.87,10.0,West,4.6,-,N/A,,Mostly Cloudy,260,2013-06-26 18:45:00
3:45 PM,77.0,68.0,74,29.86,10.0,Calm,Calm,-,N/A,,Partly Cloudy,0,2013-06-26 19:45:00
4:45 PM,77.0,68.0,74,29.86,10.0,West,4.6,-,N/A,,Clear,270,2013-06-26 20:45:00
6:45 PM,75.2,68.0,78,29.87,10.0,Calm,Calm,-,N/A,,Partly Cloudy,0,2013-06-26 22:45:00
7:45 PM,73.4,68.0,83,29.87,10.0,Calm,Calm,-,N/A,,Partly Cloudy,0,2013-06-26 23:45:00
8:45 PM,73.4,66.2,78,29.86,10.0,Calm,Calm,-,N/A,,Partly Cloudy,0,2013-06-27 00:45:00
8:55 PM,73.4,66.2,78,29.86,10.0,SW,3.5,-,N/A,,Scattered Clouds,230,2013-06-27 00:55:00
9:15 PM,71.6,66.2,83,29.86,10.0,Calm,Calm,-,N/A,,Partly Cloudy,0,2013-06-27 01:15:00
9:35 PM,69.8,66.2,88,29.86,10.0,Calm,Calm,-,N/A,,Clear,0,2013-06-27 01:35:00
9:55 PM,69.8,64.4,83,29.87,10.0,Calm,Calm,-,N/A,,Clear,0,2013-06-27 01:55:00
10:15 PM,69.8,64.4,83,29.88,9.0,Calm,Calm,-,N/A,,Clear,0,2013-06-27 02:15:00
10:35 PM,68.0,64.4,88,29.88,9.0,Calm,Calm,-,N/A,,Scattered Clouds,0,2013-06-27 02:35:00
10:55 PM,68.0,64.4,88,29.89,7.0,South,3.5,-,N/A,,Mostly Cloudy,190,2013-06-27 02:55:00
11:15 PM,69.8,66.2,88,29.89,10.0,SSW,3.5,-,N/A,,Scattered Clouds,200,2013-06-27 03:15:00
11:35 PM,69.8,64.4,83,29.89,10.0,Calm,Calm,-,N/A,,Mostly Cloudy,0,2013-06-27 03:35:00
11:55 PM,69.8,64.4,83,29.88,10.0,Calm,Calm,-,N/A,,Mostly Cloudy,0,2013-06-27 03:55:00